GW6757 Weather Reports


time (UTC)temp
C
wind
direction
speed
KPH
gust
KPH
rain 1hr
cm
rain 24hr
cm
rain mn
cm
humidity
%
barometer
mb
20260504223321 28 3 3.2 6.4 0.00 0.00 0.00 80 1013.5
20260504222818 28 2 3.2 4.8 0.00 0.00 0.00 80 1013.4
20260504222315 28 6 4.8 6.4 0.00 0.00 0.00 79 1013.5
20260504221814 28 1 3.2 4.8 0.00 0.00 0.00 78 1013.4
20260504221310 28 4 3.2 3.2 0.00 0.00 0.00 78 1013.5
20260504220807 28 353 4.8 6.4 0.00 0.00 0.00 78 1013.5
20260504220304 28 4 3.2 4.8 0.00 0.00 0.00 77 1013.4
20260504215801 29 17 4.8 6.4 0.00 0.00 0.00 76 1013.6
20260504215257 30 10 4.8 6.4 0.00 0.00 0.00 74 1013.4
20260504214753 30 8 4.8 6.4 0.00 0.00 0.00 71 1013.5
20260504214250 31 314 1.6 4.8 0.00 0.00 0.00 70 1013.4
20260504213747 31 110 1.6 4.8 0.00 0.00 0.00 70 1013.1
20260504213243 31 119 0.0 4.8 0.00 0.00 0.00 71 1013.3
20260504212740 31 55 0.0 6.4 0.00 0.00 0.00 70 1013.4
20260504212237 30 106 0.0 3.2 0.00 0.00 0.00 72 1013.1
20260504211734 30 303 1.6 8.0 0.00 0.00 0.00 72 1013.3
20260504211230 30 259 0.0 8.0 0.00 0.00 0.00 71 1013.2
20260504210728 30 248 1.6 8.0 0.00 0.00 0.00 71 1013.2
20260504210225 30 116 0.0 3.2 0.00 0.00 0.00 71 1013.1
20260504205722 31 174 3.2 6.4 0.00 0.00 0.00 69 1013.2
20260504205220 31 120 3.2 4.8 0.00 0.00 0.00 70 1013.1
20260504204718 31 234 4.8 6.4 0.00 0.00 0.00 70 1013.2
20260504204216 31 201 3.2 6.4 0.00 0.00 0.00 70 1013.3
20260504203715 30 127 1.6 4.8 0.00 0.00 0.00 71 1013.3
20260504203212 30 196 3.2 8.0 0.00 0.00 0.00 70 1013.4
20260504202712 30 241 0.0 4.8 0.00 0.00 0.00 71 1013.4
20260504202209 31 221 1.6 6.4 0.00 0.00 0.00 69 1013.5
20260504201706 31 311 4.8 8.0 0.00 0.00 0.00 70 1013.5
20260504201204 31 98 0.0 9.7 0.00 0.00 0.00 70 1013.6
20260504200701 30 195 4.8 4.8 0.00 0.00 0.00 71 1013.7
20260504200157 30 215 3.2 6.4 0.00 0.00 0.00 71 1013.6
20260504195653 30 248 3.2 8.0 0.00 0.00 0.00 71 1013.6
20260504195149 30 217 4.8 8.0 0.00 0.00 0.00 71 1013.6
20260504194646 30 77 0.0 6.4 0.00 0.00 0.00 71 1013.6
20260504194142 30 323 0.0 4.8 0.00 0.00 0.00 70 1013.6
20260504193639 31 234 6.4 8.0 0.00 0.00 0.00 67 1013.8
20260504193137 31 237 4.8 8.0 0.00 0.00 0.00 69 1013.8
20260504192634 31 207 1.6 8.0 0.00 0.00 0.00 69 1013.9
20260504192133 31 198 4.8 14.5 0.00 0.00 0.00 69 1013.8
20260504191631 31 204 3.2 8.0 0.00 0.00 0.00 71 1013.8
20260504191126 31 137 3.2 8.0 0.00 0.00 0.00 70 1013.9
20260504190623 31 189 6.4 8.0 0.00 0.00 0.00 71 1014.0
20260504190120 31 71 3.2 8.0 0.00 0.00 0.00 71 1014.0
20260504185616 31 265 1.6 6.4 0.00 0.00 0.00 73 1014.1
20260504185113 31 278 3.2 9.7 0.00 0.00 0.00 71 1014.2
20260504184608 30 181 3.2 8.0 0.00 0.00 0.00 73 1014.1
20260504184104 30 295 0.0 8.0 0.00 0.00 0.00 73 1014.0
20260504183601 30 169 4.8 8.0 0.00 0.00 0.00 73 1014.6
20260504183059 30 256 3.2 4.8 0.00 0.00 0.00 73 1014.5
20260504182556 30 210 4.8 9.7 0.00 0.00 0.00 72 1014.9
20260504182053 30 268 6.4 14.5 0.00 0.00 0.00 72 1014.8
20260504181550 30 237 4.8 9.7 0.00 0.00 0.00 72 1014.7
20260504181048 30 177 1.6 6.4 0.00 0.00 0.00 72 1014.9
20260504180547 30 282 3.2 4.8 0.00 0.00 0.00 73 1014.9
20260504180045 30 286 3.2 9.7 0.00 0.00 0.00 73 1014.8
20260504175542 30 224 6.4 6.4 0.00 0.00 0.00 74 1014.9
20260504175039 30 244 3.2 8.0 0.00 0.00 0.00 73 1014.9
20260504174537 30 290 1.6 8.0 0.00 0.00 0.00 72 1014.8
20260504174033 30 80 0.0 11.3 0.00 0.00 0.00 72 1015.0
20260504173530 30 172 3.2 6.4 0.00 0.00 0.00 73 1015.3
20260504173028 30 267 8.0 8.0 0.00 0.00 0.00 74 1015.0
20260504172524 29 238 4.8 11.3 0.00 0.00 0.00 74 1015.3
20260504172020 30 198 3.2 9.7 0.00 0.00 0.00 73 1015.0
20260504171517 30 202 4.8 9.7 0.00 0.00 0.00 72 1015.2
20260504171014 30 228 6.4 9.7 0.00 0.00 0.00 73 1015.3
20260504170510 30 238 4.8 11.3 0.00 0.00 0.00 72 1015.4
20260504160431 30 275 0.0 8.0 0.00 0.00 0.00 75 1014.9
20260504150854 30 184 4.8 8.0 0.00 0.00 0.00 76 1015.5
20260504150351 30 207 9.7 9.7 0.00 0.00 0.00 76 1015.5
20260504141321 30 173 0.0 9.7 0.00 0.00 0.00 77 1015.6
20260504140817 29 145 0.0 8.0 0.00 0.00 0.00 79 1015.6
20260504140313 28 184 4.8 8.0 0.00 0.00 0.00 80 1015.6
20260504130742 28 234 3.2 12.9 0.00 0.00 0.00 81 1015.0
20260504130238 28 167 6.4 6.4 0.00 0.00 0.00 83 1015.1
20260504120202 27 140 8.0 8.0 0.00 0.00 0.00 89 1014.2
20260504110629 25 111 3.2 6.4 0.00 0.00 0.00 93 1013.9
20260504110125 25 100 3.2 4.8 0.00 0.00 0.00 93 1013.8
20260504100551 24 134 3.2 8.0 0.00 0.00 0.00 93 1013.3
20260504081944 25 135 6.4 6.4 0.00 0.00 0.00 93 1013.4
20260504081442 25 117 4.8 8.0 0.00 0.00 0.00 93 1013.2
20260504080937 24 125 1.6 6.4 0.00 0.00 0.00 93 1013.3
20260504080434 24 128 9.7 9.7 0.00 0.00 0.00 93 1013.4
20260504070402 25 84 0.0 4.8 0.00 0.00 0.00 92 1013.9
20260504050749 25 116 3.2 4.8 0.00 0.00 0.00 92 1015.5
20260504050247 25 97 1.6 6.4 0.00 0.00 0.00 92 1015.5
20260504045745 25 108 3.2 4.8 0.00 0.00 0.00 92 1015.5
20260504045244 25 118 3.2 6.4 0.00 0.00 0.00 92 1015.3
20260504044742 25 102 3.2 6.4 0.00 0.00 0.00 91 1015.6
20260504044240 25 136 4.8 6.4 0.00 0.00 0.00 91 1015.6
20260504043737 25 120 1.6 6.4 0.00 0.00 0.00 91 1015.7
20260504043233 25 109 4.8 6.4 0.00 0.00 0.00 91 1015.6
20260504042731 25 93 4.8 6.4 0.00 0.00 0.00 91 1015.7
20260504042227 25 101 4.8 6.4 0.00 0.00 0.00 91 1015.7
20260504041724 25 120 6.4 8.0 0.00 0.00 0.00 91 1015.8
20260504041220 25 128 3.2 4.8 0.00 0.00 0.00 91 1015.7
20260504040716 25 56 3.2 4.8 0.00 0.00 0.00 91 1015.6
20260504040214 25 105 3.2 4.8 0.00 0.00 0.00 91 1015.8
20260504035710 25 112 4.8 6.4 0.00 0.00 0.00 91 1015.7
20260504035207 25 57 0.0 4.8 0.00 0.00 0.00 91 1015.8
20260504034704 26 109 6.4 6.4 0.00 0.00 0.00 91 1015.8
20260504034201 26 91 3.2 8.0 0.00 0.00 0.00 91 1016.0
20260504033659 26 106 8.0 8.0 0.00 0.00 0.00 91 1015.9
20260504033156 26 94 4.8 9.7 0.00 0.00 0.00 91 1016.0
20260504032653 26 85 6.4 9.7 0.00 0.00 0.00 91 1016.0
20260504032150 26 85 4.8 6.4 0.00 0.00 0.00 91 1016.1
20260504031647 26 98 6.4 6.4 0.00 0.00 0.00 91 1016.2
20260504031143 26 91 3.2 4.8 0.00 0.00 0.00 90 1016.2
20260504030640 26 103 4.8 6.4 0.00 0.00 0.00 90 1016.2
20260504030137 26 96 3.2 4.8 0.00 0.00 0.00 90 1016.1
20260504025634 26 110 3.2 6.4 0.00 0.00 0.00 90 1016.3
20260504025131 26 118 6.4 6.4 0.00 0.00 0.00 90 1016.3
20260504024628 26 109 3.2 8.0 0.00 0.00 0.00 90 1016.4
20260504024124 26 110 3.2 6.4 0.00 0.00 0.00 90 1016.3
20260504023621 26 96 6.4 6.4 0.00 0.00 0.00 90 1016.1
20260504023117 26 117 4.8 6.4 0.00 0.00 0.00 90 1016.2
20260504022614 26 122 3.2 6.4 0.00 0.00 0.00 90 1016.0
20260504022109 26 108 6.4 8.0 0.00 0.00 0.00 90 1016.0
20260504021608 26 85 4.8 9.7 0.00 0.00 0.00 89 1016.0
20260504021104 26 84 6.4 6.4 0.00 0.00 0.00 89 1016.0
20260504020601 26 71 4.8 9.7 0.00 0.00 0.00 89 1016.0
20260504020057 26 76 9.7 12.9 0.00 0.00 0.00 89 1016.1
20260504015554 26 80 4.8 9.7 0.00 0.00 0.00 90 1015.9
20260504015049 26 85 6.4 9.7 0.00 0.00 0.00 90 1016.0
20260504014546 26 80 8.0 9.7 0.00 0.00 0.00 89 1015.9
20260504014043 26 78 4.8 9.7 0.00 0.00 0.00 90 1015.8
20260504013541 26 75 9.7 9.7 0.00 0.00 0.00 90 1015.7
20260504013038 26 88 9.7 12.9 0.00 0.00 0.00 90 1015.6
20260504012535 26 79 8.0 11.3 0.00 0.00 0.00 90 1015.7
20260504012033 26 73 9.7 11.3 0.00 0.00 0.00 90 1015.5
20260504011529 26 97 3.2 6.4 0.00 0.00 0.00 90 1015.6
20260504011026 26 84 6.4 9.7 0.00 0.00 0.00 90 1015.5
20260504010521 26 75 4.8 4.8 0.00 0.00 0.00 89 1015.6
20260504010017 26 71 3.2 6.4 0.00 0.00 0.00 89 1015.6
20260504005514 26 86 4.8 4.8 0.00 0.00 0.00 89 1015.3
20260504005012 26 89 3.2 6.4 0.00 0.00 0.00 89 1015.2
20260504004510 26 106 4.8 6.4 0.00 0.00 0.00 89 1015.1
20260504004007 26 101 6.4 6.4 0.00 0.00 0.00 89 1015.1
20260504003502 26 94 3.2 4.8 0.00 0.00 0.00 88 1015.2
20260504002959 26 102 4.8 4.8 0.00 0.00 0.00 88 1015.0
20260504002456 26 64 1.6 4.8 0.00 0.00 0.00 88 1014.8
20260504001954 26 98 4.8 6.4 0.00 0.00 0.00 88 1015.0
20260504001451 26 96 3.2 4.8 0.00 0.00 0.00 88 1014.9
20260504000947 26 131 1.6 4.8 0.00 0.00 0.00 87 1014.7
20260504000444 26 134 0.0 6.4 0.00 0.00 0.00 87 1015.0
20260503235942 26 115 3.2 4.8 0.00 0.00 0.00 87 1014.7
20260503235439 26 118 3.2 4.8 0.00 0.00 0.00 86 1014.8
20260503234937 26 118 3.2 4.8 0.00 0.00 0.00 86 1014.6
20260503234434 26 126 6.4 6.4 0.00 0.00 0.00 86 1014.7
20260503233932 26 106 1.6 4.8 0.00 0.00 0.00 85 1014.5
20260503233428 27 111 6.4 6.4 0.00 0.00 0.00 85 1014.4
20260503232925 27 117 6.4 8.0 0.00 0.00 0.00 84 1014.6
20260503232422 27 85 3.2 9.7 0.00 0.00 0.00 84 1014.4
20260503231920 27 55 3.2 6.4 0.00 0.00 0.00 83 1014.4
20260503231417 27 106 6.4 6.4 0.00 0.00 0.00 82 1014.6
20260503230913 27 96 3.2 6.4 0.00 0.00 0.00 82 1014.2
20260503230410 27 100 6.4 11.3 0.00 0.00 0.00 81 1014.3
20260503225908 27 105 4.8 8.0 0.00 0.00 0.00 81 1014.3
20260503225403 28 86 6.4 6.4 0.00 0.00 0.00 81 1014.3
20260503224900 28 98 3.2 8.0 0.00 0.00 0.00 80 1014.2
20260503224357 28 91 3.2 8.0 0.00 0.00 0.00 80 1014.2
20260503223855 28 98 3.2 11.3 0.00 0.00 0.00 80 1014.3